Location: Helsinki
(60.1699°N, 24.9384°E)
Time: 08:54:12
(UTC+02:00)

Vanguard 2 Rocket - Pass Details

Date: 26 September 2023
Orbit: 552 x 3312 km, 32.9° (Epoch: 05 December)

Event Time Altitude Azimuth Distance (km) Brightness Sun altitude
Rises 16:51:52 0° 256° (WSW) 7,285 13.0 15.4°
Reaches altitude 10° 16:58:41 10° 244° (WSW) 6,246 14.1 14.7°
Maximum altitude 17:10:51 21° 205° (SSW) 4,961 11.7 13.3°
Drops below altitude 10° 17:21:05 10° 165° (SSE) 5,140 10.9 12.2°
Sets 17:25:54 0° 150° (SSE) 5,707 10.9 11.6°
